User: anonymous   Login
Location: Unspecified
(0.0000°N, 0.0000°E)
Time: 16:11:19
(UTC+00:00)
Language:

CUTE 1.7 + AOD 2 - Orbit

View from above orbital plane
View from above orbital plane
View from above satellite
View from above satellite

Ground track
Ground track

The orbit data is extracted from the following two-line orbital elements,

1 32785U 08021C   16126.18592709  .00000633  00000-0  75442-4 0  9991
2 32785  97.6069 162.1824 0014826  80.8998 279.3895 14.87521622434238
Epoch (UTC): 05 May 2016 04:27:44
Eccentricity: 0.0014826
inclination: 97.6069°
perigee height: 595 km
apogee height: 616 km
right ascension of ascending node: 162.1824°
argument of perigee: 80.8998°
revolutions per day: 14.87521622
mean anomaly at epoch: 279.3895°
orbit number at epoch: 43423

The dashed part of the orbit path shows where the satellite is in the earth's shadow,  

DLR